CDT,Max TemperatureF,Mean TemperatureF,Min TemperatureF,Max Dew PointF,MeanDew PointF,Min DewpointF,Max Humidity, Mean Humidity, Min Humidity, Max Sea Level PressureIn, Mean Sea Level PressureIn, Min Sea Level PressureIn, Max VisibilityMiles, Mean VisibilityMiles, Min VisibilityMiles, Max Wind SpeedMPH, Mean Wind SpeedMPH, Max Gust SpeedMPH,PrecipitationIn, CloudCover, Events, WindDirDegrees
2012-9-1,89,80,71,75,72,70,100,83,59,30.16,30.08,30.02,10,9,5,12,4,16,0.00,4,Rain,195
2012-9-2,89,80,71,75,72,70,94,80,59,30.03,29.97,29.88,10,10,7,14,4,18,0.00,3,Thunderstorm,218
2012-9-3,91,80,68,77,73,66,100,82,63,29.99,29.90,29.83,10,9,2,14,6,24,2.02,4,Rain-Thunderstorm,238
2012-9-4,89,80,71,77,73,72,100,82,59,29.90,29.87,29.83,10,9,5,9,2,16,0.22,3,Rain-Thunderstorm,313
2012-9-5,89,80,71,77,74,70,100,87,62,29.94,29.88,29.83,10,7,1,9,2,,0.00,4,,135
2012-9-6,89,78,68,75,71,68,100,80,55,29.99,29.94,29.90,10,10,7,9,4,17,0.00,2,Rain-Thunderstorm,120
2012-9-7,89,78,68,75,72,68,100,79,55,29.97,29.90,29.80,10,8,0,7,1,,0.00,0,Fog,156
2012-9-8,77,70,62,72,67,59,100,87,65,29.99,29.89,29.81,10,10,7,8,2,,0.02,4,Rain,337
2012-9-9,78,64,51,63,56,52,100,77,42,30.08,30.03,29.98,10,10,7,8,1,16,0.00,0,,335
2012-9-10,82,66,51,63,57,52,100,76,37,30.15,30.10,30.06,10,10,7,7,1,,0.00,0,,331
2012-9-11,82,68,53,64,58,52,100,74,39,30.21,30.15,30.10,10,10,7,8,1,,0.00,1,,148
2012-9-12,82,70,57,68,63,57,100,80,58,30.24,30.18,30.12,10,9,5,10,3,,0.00,2,,114
2012-9-13,86,73,60,68,63,59,100,75,45,30.25,30.19,30.13,10,10,10,10,4,,0.00,3,,124
2012-9-14,84,72,60,66,63,59,100,76,45,30.22,30.18,30.14,10,10,5,9,1,,0.00,2,,84
2012-9-15,82,70,59,70,63,59,100,81,45,30.19,30.14,30.08,10,8,2,7,1,,0.00,0,,120
2012-9-16,87,74,62,72,66,61,100,79,46,30.09,30.03,29.96,10,8,3,6,0,,0.00,2,,155
2012-9-17,73,70,66,72,68,64,100,95,88,29.97,29.85,29.74,10,8,1,8,3,,1.60,7,Rain-Thunderstorm,139
2012-9-18,75,65,53,68,62,52,100,88,72,30.05,29.88,29.74,10,9,2,10,3,20,0.79,5,Rain,328
2012-9-19,73,60,46,55,48,43,100,71,33,30.16,30.10,30.05,10,10,10,9,2,,0.00,0,,10
2012-9-20,78,61,44,61,50,45,100,78,34,30.13,30.08,30.02,10,10,10,5,0,,0.00,0,,222
2012-9-21,80,65,50,64,56,50,100,82,37,30.11,30.03,29.96,10,10,7,6,1,,0.00,0,,188
2012-9-22,86,70,55,64,60,55,100,78,39,30.12,30.05,29.99,10,8,2,7,2,,0.00,0,,288
2012-9-23,77,65,53,55,53,50,100,73,39,30.22,30.17,30.12,10,10,10,8,2,,0.00,0,,356
2012-9-24,75,62,48,59,49,43,94,67,33,30.25,30.19,30.12,10,10,10,9,1,,0.00,0,,92
2012-9-25,80,68,55,68,60,54,94,79,57,30.16,30.11,30.08,10,10,10,8,3,,0.00,0,,154
2012-9-26,82,68,55,64,60,54,100,78,48,30.17,30.12,30.08,10,10,7,8,2,,0.00,0,,155
2012-9-27,87,73,59,70,63,57,100,82,46,30.18,30.12,30.06,10,9,4,6,0,,0.00,1,,175
2012-9-28,86,72,59,72,65,59,100,83,48,30.12,30.06,29.99,10,8,0,4,0,,0.00,1,Fog,260
2012-9-29,80,72,64,70,66,63,100,84,65,30.02,29.96,29.90,10,9,4,9,1,,0.00,2,,20
2012-9-30,69,64,60,66,61,59,100,95,88,29.91,29.77,29.60,10,6,2,14,5,17,2.79,8,Rain-Thunderstorm,36